Weather History for Victoria, BC

Change the Weather History Date:

Sunday, October 12, 2014

  Actual Average Record
Temperature  
Mean Temperature 51 °F -  
Max Temperature 56 °F 54 °F 64 °F (2001)
Min Temperature 46 °F 40 °F 35 °F (2002)
Degree Days  
Heating Degree Days 14    
Growing Degree Days 1 (Base 50)    
Moisture  
Dew Point 51 °F    
Average Humidity 92    
Maximum Humidity 100    
Minimum Humidity 80    
Precipitation  
Precipitation 0.04 in 0.13 in - ()
Sea Level Pressure  
Sea Level Pressure 30.15 in    
Wind  
Wind Speed 5 mph ()    
Max Wind Speed 10 mph    
Max Gust Speed -    
Visibility 17.1 miles    
Events Rain    
Averages and records for this station are not official NWS values.
T = Trace of Precipitation, MM = Missing Value Source: Averaged Metar Reports

Daily Weather History Graph

Daily Weather History Graph

Search for Another Location

Airport:

Trip Planner

Search our weather history database for the weather conditions in past years. The results will help you decide how hot, cold, wet, or windy it might be!

Date:

Astronomy

Oct. 12, 2014 Rise Set
Actual Time 7:29 AM PDT 6:29 PM PDT
Civil Twilight 6:57 AM PDT 7:01 PM PDT
Nautical Twilight 6:21 AM PDT 7:37 PM PDT
Astronomical Twilight 5:44 AM PDT 8:14 PM PDT
Moon 9:36 PM PDT (10/12) 12:12 PM PDT (10/12)
Length of Visible Light 12h 03m
Length of Day
11h 00m
Waning Gibbous, 78% of the Moon is Illuminated
Oct 12
Waning Gibbous
Oct 15
Last Quarter
Oct 23
New
Oct 30
First Quarter
Nov 6
Full

Hourly Weather History & Observations

Time (PDT) Temp. Dew Point Humidity Pressure Visibility Wind Dir Wind Speed Gust Speed Precip Events Conditions
12:00 AM 50.0 °F 46.4 °F 87% 30.16 in 20.0 mi SW 6.9 mph - N/A   Partly Cloudy
1:00 AM 50.0 °F 46.4 °F 87% 30.17 in 20.0 mi SW 4.6 mph - N/A   Partly Cloudy
2:00 AM 46.4 °F 44.6 °F 93% 30.18 in 20.0 mi SW 2.3 mph - N/A   Partly Cloudy
3:00 AM 50.0 °F 48.2 °F 94% 30.19 in 20.0 mi WSW 9.2 mph - N/A   Partly Cloudy
4:00 AM 51.8 °F 50.0 °F 94% 30.19 in 20.0 mi West 5.8 mph - N/A   Partly Cloudy
5:00 AM 54 °F 50 °F 80% 30.20 in 19 mi West 5.8 mph - -   Overcast
5:00 AM 53.6 °F 50.0 °F 88% 30.20 in 20.0 mi West 6.9 mph - N/A   Overcast
6:00 AM 53.6 °F 50.0 °F 88% 30.21 in 20.0 mi West 9.2 mph - N/A   Overcast
7:00 AM 51.8 °F 48.2 °F 88% 30.22 in 20.0 mi SW 6.9 mph - N/A   Overcast
8:00 AM 50.0 °F 48.2 °F 94% 30.22 in 20.0 mi Calm Calm - N/A   Overcast
9:00 AM 53.6 °F 50.0 °F 88% 30.22 in 30.0 mi ESE 3.5 mph - N/A   Overcast
10:00 AM 55.4 °F 50.0 °F 82% 30.22 in 30.0 mi ENE 2.3 mph - N/A   Overcast
11:00 AM 54 °F 51 °F 86% 30.22 in 19 mi ESE 4.6 mph - -   Overcast
11:00 AM 53.6 °F 50.0 °F 88% 30.22 in 20.0 mi SE 6.9 mph - N/A   Overcast
12:00 PM 53.6 °F 50.0 °F 88% 30.21 in 20.0 mi ESE 10.4 mph - N/A   Overcast
1:00 PM 53.6 °F 50.0 °F 88% 30.20 in 20.0 mi SE 9.2 mph - N/A   Overcast
2:00 PM 53.6 °F 51.8 °F 94% 30.20 in 20.0 mi SE 10.4 mph - N/A   Overcast
2:04 PM 53.6 °F 51.8 °F 94% 30.20 in 20.0 mi SE 9.2 mph - N/A Rain Light Rain
3:00 PM 53.6 °F 51.8 °F 94% 30.18 in 15.0 mi SE 8.1 mph - N/A Rain Light Rain
4:00 PM 55.4 °F 53.6 °F 94% 30.18 in 20.0 mi SE 5.8 mph - N/A Rain Light Rain
4:44 PM 55.4 °F 53.6 °F 94% 30.16 in 20.0 mi SE 5.8 mph - N/A   Overcast
5:00 PM 56 °F 53 °F 86% 30.15 in 19 mi SE 8.1 mph - - Rain Light Rain
5:00 PM 55.4 °F 53.6 °F 94% 30.15 in 20.0 mi SE 6.9 mph - N/A   Overcast
5:19 PM 55.4 °F 51.8 °F 88% 30.15 in 20.0 mi SE 6.9 mph - N/A Rain Light Rain
6:00 PM 53.6 °F 51.8 °F 94% 30.13 in 15.0 mi SE 6.9 mph - N/A Rain Light Rain
7:00 PM 55.4 °F 51.8 °F 88% 30.11 in 15.0 mi ESE 5.8 mph - N/A Rain Light Rain
8:00 PM 53.6 °F 51.8 °F 94% 30.09 in 10.0 mi ENE 6.9 mph - N/A Rain Light Rain
8:31 PM 53.6 °F 51.8 °F 94% 30.10 in 15.0 mi Variable 2.3 mph - N/A   Overcast
9:00 PM 53.6 °F 51.8 °F 94% 30.09 in 15.0 mi North 4.6 mph - N/A   Overcast
9:20 PM 53.6 °F 51.8 °F 94% 30.09 in 12.0 mi North 3.5 mph - N/A Rain Light Rain
10:00 PM 53.6 °F 51.8 °F 94% 30.07 in 12.0 mi SW 3.5 mph - N/A Rain Light Rain
10:33 PM 51.8 °F 51.8 °F 100% 30.06 in 12.0 mi NNW 3.5 mph - N/A   Mostly Cloudy
10:58 PM 51.8 °F 51.8 °F 100% 30.05 in 12.0 mi Calm Calm - N/A Rain Light Rain
11:00 PM 52 °F 52 °F 98% 30.05 in 12 mi NNE 2.3 mph - - Rain Light Rain
11:00 PM 51.8 °F 51.8 °F 100% 30.05 in 12.0 mi Variable 2.3 mph - N/A Rain Light Rain
11:19 PM 51.8 °F 51.8 °F 100% 30.05 in 12.0 mi Variable 3.5 mph - N/A   Mostly Cloudy
11:46 PM 53.6 °F 51.8 °F 94% 30.05 in 12.0 mi Variable 2.3 mph - N/A Rain Light Rain